Time,TemperatureF,DewpointF,PressureIn,WindDirection,WindDirectionDegrees,WindSpeedMPH,WindSpeedGustMPH,Humidity,HourlyPrecipIn,Conditions,Clouds,dailyrainin,SoftwareType,DateUTC
2013-08-28 00:00:00,79.1,66.8,30.02,South,182,0.0,0.0,66,0.00,,---,0.00,VWS V13.01,2013-08-28 05:00:00,
2013-08-28 00:05:00,79.0,66.7,30.02,South,182,0.0,0.0,66,0.00,,---,0.00,VWS V13.01,2013-08-28 05:05:00,
2013-08-28 00:10:00,78.9,67.0,30.02,South,182,0.0,0.0,67,0.00,,---,0.00,VWS V13.01,2013-08-28 05:10:00,
2013-08-28 00:16:00,78.9,67.0,30.02,South,182,0.0,0.0,67,0.00,,---,0.00,VWS V13.01,2013-08-28 05:16:00,
2013-08-28 00:21:00,78.9,66.6,30.02,South,182,0.0,0.0,66,0.00,,---,0.00,VWS V13.01,2013-08-28 05:21:00,
2013-08-28 00:26:00,78.9,67.0,30.02,South,182,0.0,2.0,67,0.00,,---,0.00,VWS V13.01,2013-08-28 05:26:00,
2013-08-28 00:31:00,78.8,66.5,30.02,South,182,0.0,3.0,66,0.00,,---,0.00,VWS V13.01,2013-08-28 05:31:00,
2013-08-28 00:36:00,78.7,66.4,30.02,South,182,0.0,4.0,66,0.00,,---,0.00,VWS V13.01,2013-08-28 05:36:00,
2013-08-28 00:41:00,78.7,66.8,30.02,South,182,0.0,3.0,67,0.00,,---,0.00,VWS V13.01,2013-08-28 05:41:00,
2013-08-28 00:46:00,78.7,66.8,30.02,South,182,0.0,3.0,67,0.00,,---,0.00,VWS V13.01,2013-08-28 05:46:00,
2013-08-28 00:51:00,78.7,67.3,30.02,South,174,1.0,4.0,68,0.00,,---,0.00,VWS V13.01,2013-08-28 05:51:00,
2013-08-28 00:56:00,78.7,67.3,30.02,East,90,0.0,5.0,68,0.00,,---,0.00,VWS V13.01,2013-08-28 05:56:00,
2013-08-28 01:01:00,78.7,67.3,30.02,East,91,0.0,5.0,68,0.00,,---,0.00,VWS V13.01,2013-08-28 06:01:00,
2013-08-28 01:06:00,78.7,67.7,30.02,East,91,0.0,5.0,69,0.00,,---,0.00,VWS V13.01,2013-08-28 06:06:00,
2013-08-28 01:11:00,78.5,67.5,30.02,East,91,0.0,1.0,69,0.00,,---,0.00,VWS V13.01,2013-08-28 06:11:00,
2013-08-28 01:17:00,78.4,67.4,30.02,East,91,0.0,1.0,69,0.00,,---,0.00,VWS V13.01,2013-08-28 06:17:00,
2013-08-28 01:22:00,78.4,67.4,30.02,East,91,0.0,4.0,69,0.00,,---,0.00,VWS V13.01,2013-08-28 06:22:00,
2013-08-28 01:27:00,78.3,67.3,30.02,East,91,0.0,4.0,69,0.00,,---,0.00,VWS V13.01,2013-08-28 06:27:00,
2013-08-28 01:32:00,78.2,67.6,30.02,East,98,0.0,4.0,70,0.00,,---,0.00,VWS V13.01,2013-08-28 06:32:00,
2013-08-28 01:37:00,78.2,67.6,30.02,ESE,105,0.0,0.0,70,0.00,,---,0.00,VWS V13.01,2013-08-28 06:37:00,
2013-08-28 01:42:00,78.2,67.6,30.02,ESE,105,0.0,4.0,70,0.00,,---,0.00,VWS V13.01,2013-08-28 06:42:00,
2013-08-28 01:47:00,78.1,67.5,30.01,ESE,105,0.0,4.0,70,0.00,,---,0.00,VWS V13.01,2013-08-28 06:47:00,
2013-08-28 01:52:00,78.1,67.5,30.01,ESE,106,0.0,4.0,70,0.00,,---,0.00,VWS V13.01,2013-08-28 06:52:00,
2013-08-28 01:57:00,78.0,67.4,30.01,ESE,106,0.0,4.0,70,0.00,,---,0.00,VWS V13.01,2013-08-28 06:57:00,
2013-08-28 02:02:00,77.9,67.8,30.01,ESE,106,0.0,4.0,71,0.00,,---,0.00,VWS V13.01,2013-08-28 07:02:00,
2013-08-28 02:07:00,77.8,67.7,30.01,ESE,106,0.0,0.0,71,0.00,,---,0.00,VWS V13.01,2013-08-28 07:07:00,
2013-08-28 02:12:00,77.7,67.6,30.01,ESE,106,0.0,1.0,71,0.00,,---,0.00,VWS V13.01,2013-08-28 07:12:00,
2013-08-28 02:18:00,77.6,67.5,30.01,ESE,106,0.0,2.0,71,0.00,,---,0.00,VWS V13.01,2013-08-28 07:18:00,
2013-08-28 02:23:00,77.5,67.4,30.01,ESE,106,0.0,2.0,71,0.00,,---,0.00,VWS V13.01,2013-08-28 07:23:00,
2013-08-28 02:28:00,77.4,67.7,30.01,ESE,106,0.0,2.0,72,0.00,,---,0.00,VWS V13.01,2013-08-28 07:28:00,
2013-08-28 02:33:00,77.3,67.6,30.01,ESE,106,0.0,2.0,72,0.00,,---,0.00,VWS V13.01,2013-08-28 07:33:00,
2013-08-28 02:38:00,77.2,67.5,30.01,ESE,107,0.0,0.0,72,0.00,,---,0.00,VWS V13.01,2013-08-28 07:38:00,
2013-08-28 02:43:00,77.0,67.3,30.01,ESE,107,0.0,0.0,72,0.00,,---,0.00,VWS V13.01,2013-08-28 07:43:00,
2013-08-28 02:48:00,76.9,67.6,30.01,ESE,107,0.0,0.0,73,0.00,,---,0.00,VWS V13.01,2013-08-28 07:48:00,
2013-08-28 02:53:00,76.8,67.5,30.01,ESE,106,0.0,0.0,73,0.00,,---,0.00,VWS V13.01,2013-08-28 07:53:00,
2013-08-28 02:58:00,76.6,67.3,30.01,ESE,106,0.0,1.0,73,0.00,,---,0.00,VWS V13.01,2013-08-28 07:58:00,
2013-08-28 03:03:00,76.5,67.2,30.01,ESE,119,0.0,3.0,73,0.00,,---,0.00,VWS V13.01,2013-08-28 08:03:00,
2013-08-28 03:08:00,76.4,67.5,30.01,ESE,121,0.0,0.0,74,0.00,,---,0.00,VWS V13.01,2013-08-28 08:08:00,
2013-08-28 03:13:00,76.4,67.5,30.01,ESE,121,0.0,0.0,74,0.00,,---,0.00,VWS V13.01,2013-08-28 08:13:00,
2013-08-28 03:18:00,76.3,67.4,30.01,SE,126,0.0,3.0,74,0.00,,---,0.00,VWS V13.01,2013-08-28 08:18:00,
2013-08-28 03:24:00,76.2,66.9,30.01,SE,128,0.0,3.0,73,0.00,,---,0.00,VWS V13.01,2013-08-28 08:24:00,
2013-08-28 03:29:00,76.2,66.9,30.01,SE,128,0.0,3.0,73,0.00,,---,0.00,VWS V13.01,2013-08-28 08:29:00,
2013-08-28 03:34:00,76.1,66.8,30.01,SE,128,0.0,4.0,73,0.00,,---,0.00,VWS V13.01,2013-08-28 08:34:00,
2013-08-28 03:39:00,76.1,66.8,30.01,SE,128,0.0,0.0,73,0.00,,---,0.00,VWS V13.01,2013-08-28 08:39:00,
2013-08-28 03:44:00,76.0,66.7,30.01,SE,128,0.0,0.0,73,0.00,,---,0.00,VWS V13.01,2013-08-28 08:44:00,
2013-08-28 03:49:00,76.0,67.1,30.01,SE,128,0.0,0.0,74,0.00,,---,0.00,VWS V13.01,2013-08-28 08:49:00,
2013-08-28 03:54:00,75.9,67.0,30.01,SE,128,0.0,2.0,74,0.00,,---,0.00,VWS V13.01,2013-08-28 08:54:00,
2013-08-28 03:59:00,75.8,66.9,30.01,SE,128,0.0,2.0,74,0.00,,---,0.00,VWS V13.01,2013-08-28 08:59:00,
2013-08-28 04:04:00,75.7,66.8,30.01,SE,128,0.0,2.0,74,0.00,,---,0.00,VWS V13.01,2013-08-28 09:04:00,
2013-08-28 04:09:00,75.6,67.1,30.01,SE,128,0.0,0.0,75,0.00,,---,0.00,VWS V13.01,2013-08-28 09:09:00,
2013-08-28 04:14:00,75.5,67.0,30.01,SE,128,0.0,0.0,75,0.00,,---,0.00,VWS V13.01,2013-08-28 09:14:00,
2013-08-28 04:19:00,75.4,66.9,30.01,SE,128,0.0,1.0,75,0.00,,---,0.00,VWS V13.01,2013-08-28 09:19:00,
2013-08-28 04:24:00,75.3,66.8,30.01,SE,128,0.0,1.0,75,0.00,,---,0.00,VWS V13.01,2013-08-28 09:24:00,
2013-08-28 04:30:00,75.2,66.7,30.01,SE,128,0.0,2.0,75,0.00,,---,0.00,VWS V13.01,2013-08-28 09:30:00,
2013-08-28 04:34:00,75.1,66.6,30.01,SE,128,0.0,2.0,75,0.00,,---,0.00,VWS V13.01,2013-08-28 09:34:00,
2013-08-28 04:39:00,75.0,66.6,30.01,SE,128,0.0,0.0,75,0.00,,---,0.00,VWS V13.01,2013-08-28 09:39:00,
2013-08-28 04:44:00,74.9,66.8,30.01,SE,128,0.0,0.0,76,0.00,,---,0.00,VWS V13.01,2013-08-28 09:44:00,
2013-08-28 04:49:00,74.9,66.8,30.02,SE,128,0.0,0.0,76,0.00,,---,0.00,VWS V13.01,2013-08-28 09:49:00,
2013-08-28 04:54:00,74.9,67.2,30.02,SE,128,0.0,2.0,77,0.00,,---,0.00,VWS V13.01,2013-08-28 09:54:00,
2013-08-28 04:59:00,74.9,66.8,30.02,SE,128,0.0,2.0,76,0.00,,---,0.00,VWS V13.01,2013-08-28 09:59:00,
2013-08-28 05:04:00,74.9,66.8,30.02,SE,128,0.0,2.0,76,0.00,,---,0.00,VWS V13.01,2013-08-28 10:04:00,
2013-08-28 05:09:00,74.9,66.8,30.02,SE,128,0.0,0.0,76,0.00,,---,0.00,VWS V13.01,2013-08-28 10:09:00,
2013-08-28 05:14:00,74.9,66.8,30.02,SE,128,0.0,2.0,76,0.00,,---,0.00,VWS V13.01,2013-08-28 10:14:00,
2013-08-28 05:19:00,74.9,66.4,30.02,SE,128,0.0,2.0,75,0.00,,---,0.00,VWS V13.01,2013-08-28 10:19:00,
2013-08-28 05:24:00,74.8,66.3,30.02,SE,128,0.0,2.0,75,0.00,,---,0.00,VWS V13.01,2013-08-28 10:24:00,
2013-08-28 05:30:00,74.8,66.3,30.02,SE,128,0.0,2.0,75,0.00,,---,0.00,VWS V13.01,2013-08-28 10:30:00,
2013-08-28 05:35:00,74.8,66.3,30.02,SE,128,0.0,2.0,75,0.00,,---,0.00,VWS V13.01,2013-08-28 10:35:00,
2013-08-28 05:40:00,74.7,66.3,30.02,SE,128,0.0,0.0,75,0.00,,---,0.00,VWS V13.01,2013-08-28 10:40:00,
2013-08-28 05:45:00,74.7,66.3,30.03,SE,128,0.0,0.0,75,0.00,,---,0.00,VWS V13.01,2013-08-28 10:45:00,
2013-08-28 05:50:00,74.6,66.2,30.03,SE,128,0.0,1.0,75,0.00,,---,0.00,VWS V13.01,2013-08-28 10:50:00,
2013-08-28 05:55:00,74.5,66.1,30.03,SE,128,0.0,2.0,75,0.00,,---,0.00,VWS V13.01,2013-08-28 10:55:00,
2013-08-28 06:00:00,74.4,66.0,30.03,SE,128,0.0,2.0,75,0.00,,---,0.00,VWS V13.01,2013-08-28 11:00:00,
2013-08-28 06:05:00,74.3,65.9,30.03,SE,128,0.0,2.0,75,0.00,,---,0.00,VWS V13.01,2013-08-28 11:05:00,
2013-08-28 06:10:00,74.3,65.9,30.03,SE,128,0.0,0.0,75,0.00,,---,0.00,VWS V13.01,2013-08-28 11:10:00,
2013-08-28 06:15:00,74.2,65.8,30.03,SE,128,0.0,0.0,75,0.00,,---,0.00,VWS V13.01,2013-08-28 11:15:00,
2013-08-28 06:20:00,74.1,66.1,30.03,SE,128,0.0,0.0,76,0.00,,---,0.00,VWS V13.01,2013-08-28 11:20:00,
2013-08-28 06:25:00,74.0,66.0,30.04,SE,128,0.0,2.0,76,0.00,,---,0.00,VWS V13.01,2013-08-28 11:25:00,
2013-08-28 06:30:00,73.9,65.9,30.04,SE,128,0.0,2.0,76,0.00,,---,0.00,VWS V13.01,2013-08-28 11:30:00,
2013-08-28 06:36:00,73.8,66.2,30.04,SE,128,0.0,2.0,77,0.00,,---,0.00,VWS V13.01,2013-08-28 11:36:00,
2013-08-28 06:41:00,73.7,66.1,30.04,SE,128,0.0,0.0,77,0.00,,---,0.00,VWS V13.01,2013-08-28 11:41:00,
2013-08-28 06:46:00,73.7,66.1,30.04,SE,128,0.0,0.0,77,0.00,,---,0.00,VWS V13.01,2013-08-28 11:46:00,
2013-08-28 06:51:00,73.6,65.9,30.05,SE,128,0.0,0.0,77,0.00,,---,0.00,VWS V13.01,2013-08-28 11:51:00,
2013-08-28 06:56:00,73.5,66.2,30.05,SE,128,0.0,0.0,78,0.00,,---,0.00,VWS V13.01,2013-08-28 11:56:00,
2013-08-28 07:01:00,73.4,66.1,30.05,SE,128,0.0,0.0,78,0.00,,---,0.00,VWS V13.01,2013-08-28 12:01:00,
2013-08-28 07:06:00,73.4,66.1,30.05,SE,128,0.0,0.0,78,0.00,,---,0.00,VWS V13.01,2013-08-28 12:06:00,
2013-08-28 07:11:00,73.3,66.0,30.05,SE,128,0.0,0.0,78,0.00,,---,0.00,VWS V13.01,2013-08-28 12:11:00,
2013-08-28 07:16:00,73.3,66.0,30.05,SE,128,0.0,0.0,78,0.00,,---,0.00,VWS V13.01,2013-08-28 12:16:00,
2013-08-28 07:21:00,73.3,66.0,30.05,SE,128,0.0,0.0,78,0.00,,---,0.00,VWS V13.01,2013-08-28 12:21:00,
2013-08-28 07:26:00,73.3,66.4,30.05,SE,128,0.0,1.0,79,0.00,,---,0.00,VWS V13.01,2013-08-28 12:26:00,
2013-08-28 07:31:00,73.4,66.5,30.05,SE,128,0.0,1.0,79,0.00,,---,0.00,VWS V13.01,2013-08-28 12:31:00,
2013-08-28 07:37:00,73.5,66.6,30.06,SE,128,0.0,1.0,79,0.00,,---,0.00,VWS V13.01,2013-08-28 12:37:00,
2013-08-28 07:42:00,73.6,67.1,30.06,SE,128,0.0,0.0,80,0.00,,---,0.00,VWS V13.01,2013-08-28 12:42:00,
2013-08-28 07:47:00,73.7,67.2,30.05,SE,128,0.0,0.0,80,0.00,,---,0.00,VWS V13.01,2013-08-28 12:47:00,
2013-08-28 07:52:00,73.8,67.2,30.06,SE,128,0.0,0.0,80,0.00,,---,0.00,VWS V13.01,2013-08-28 12:52:00,
2013-08-28 07:57:00,74.0,67.4,30.06,SE,128,0.0,1.0,80,0.00,,---,0.00,VWS V13.01,2013-08-28 12:57:00,
2013-08-28 08:02:00,74.2,67.3,30.06,SE,128,0.0,1.0,79,0.00,,---,0.00,VWS V13.01,2013-08-28 13:02:00,
2013-08-28 08:07:00,74.3,67.4,30.06,SE,128,0.0,0.0,79,0.00,,---,0.00,VWS V13.01,2013-08-28 13:07:00,
2013-08-28 08:12:00,74.6,67.7,30.06,SE,128,0.0,0.0,79,0.00,,---,0.00,VWS V13.01,2013-08-28 13:12:00,
2013-08-28 08:17:00,74.9,67.9,30.06,SE,128,0.0,0.0,79,0.00,,---,0.00,VWS V13.01,2013-08-28 13:17:00,
2013-08-28 08:22:00,75.2,67.9,30.06,SE,128,0.0,0.0,78,0.00,,---,0.00,VWS V13.01,2013-08-28 13:22:00,
2013-08-28 08:27:00,75.5,68.2,30.06,SE,128,0.0,0.0,78,0.00,,---,0.00,VWS V13.01,2013-08-28 13:27:00,
2013-08-28 08:32:00,75.7,68.0,30.06,SE,128,0.0,1.0,77,0.00,,---,0.00,VWS V13.01,2013-08-28 13:32:00,
2013-08-28 08:37:00,76.1,67.6,30.06,SE,128,0.0,2.0,75,0.00,,---,0.00,VWS V13.01,2013-08-28 13:37:00,
2013-08-28 08:43:00,76.7,68.2,30.06,SE,128,0.0,3.0,75,0.00,,---,0.00,VWS V13.01,2013-08-28 13:43:00,
2013-08-28 08:48:00,77.4,69.2,30.06,SE,126,0.0,3.0,76,0.00,,---,0.00,VWS V13.01,2013-08-28 13:48:00,
2013-08-28 08:53:00,77.9,69.7,30.06,SE,126,0.0,3.0,76,0.00,,---,0.00,VWS V13.01,2013-08-28 13:53:00,
2013-08-28 08:58:00,78.2,68.8,30.06,SE,127,0.0,4.0,73,0.00,,---,0.00,VWS V13.01,2013-08-28 13:58:00,
2013-08-28 09:03:00,78.5,68.3,30.06,SE,128,0.0,4.0,71,0.00,,---,0.00,VWS V13.01,2013-08-28 14:03:00,
2013-08-28 09:08:00,78.7,68.5,30.06,SE,128,0.0,0.0,71,0.00,,---,0.00,VWS V13.01,2013-08-28 14:08:00,
2013-08-28 09:13:00,79.0,68.0,30.07,SE,141,0.0,1.0,69,0.00,,---,0.00,VWS V13.01,2013-08-28 14:13:00,
2013-08-28 09:18:00,79.3,68.3,30.07,South,191,0.0,1.0,69,0.00,,---,0.00,VWS V13.01,2013-08-28 14:18:00,
2013-08-28 09:23:00,79.6,68.5,30.07,SSW,193,0.0,1.0,69,0.00,,---,0.00,VWS V13.01,2013-08-28 14:23:00,
2013-08-28 09:28:00,80.0,68.1,30.07,SW,231,0.0,5.0,67,0.00,,---,0.00,VWS V13.01,2013-08-28 14:28:00,
2013-08-28 09:33:00,80.3,68.3,30.07,SW,225,0.0,5.0,67,0.00,,---,0.00,VWS V13.01,2013-08-28 14:33:00,
2013-08-28 09:39:00,80.5,68.1,30.07,South,190,0.0,4.0,66,0.00,,---,0.00,VWS V13.01,2013-08-28 14:39:00,
2013-08-28 09:44:00,80.7,69.2,30.07,SE,129,0.0,4.0,68,0.00,,---,0.00,VWS V13.01,2013-08-28 14:44:00,
2013-08-28 09:49:00,81.0,69.0,30.06,SE,128,0.0,4.0,67,0.00,,---,0.00,VWS V13.01,2013-08-28 14:49:00,
2013-08-28 09:54:00,81.3,69.3,30.06,ESE,110,0.0,4.0,67,0.00,,---,0.00,VWS V13.01,2013-08-28 14:54:00,
2013-08-28 09:59:00,81.8,69.8,30.06,ESE,117,0.0,4.0,67,0.00,,---,0.00,VWS V13.01,2013-08-28 14:59:00,
2013-08-28 10:04:00,82.4,70.3,30.06,ESE,117,0.0,4.0,67,0.00,,---,0.00,VWS V13.01,2013-08-28 15:04:00,
2013-08-28 10:09:00,83.1,70.1,30.06,ESE,119,0.0,3.0,65,0.00,,---,0.00,VWS V13.01,2013-08-28 15:09:00,
2013-08-28 10:14:00,83.4,70.4,30.06,WSW,237,0.0,3.0,65,0.00,,---,0.00,VWS V13.01,2013-08-28 15:14:00,
2013-08-28 10:19:00,83.7,69.8,30.06,SW,233,0.0,3.0,63,0.00,,---,0.00,VWS V13.01,2013-08-28 15:19:00,
2013-08-28 10:24:00,83.9,70.4,30.06,SW,233,0.0,3.0,64,0.00,,---,0.00,VWS V13.01,2013-08-28 15:24:00,
2013-08-28 10:29:00,84.2,70.7,30.06,SW,233,0.0,3.0,64,0.00,,---,0.00,VWS V13.01,2013-08-28 15:29:00,
2013-08-28 10:34:00,84.4,70.0,30.06,SW,233,0.0,3.0,62,0.00,,---,0.00,VWS V13.01,2013-08-28 15:34:00,
2013-08-28 10:40:00,84.6,70.6,30.06,West,267,0.0,4.0,63,0.00,,---,0.00,VWS V13.01,2013-08-28 15:40:00,
2013-08-28 10:45:00,84.8,70.8,30.07,South,190,3.0,4.0,63,0.00,,---,0.00,VWS V13.01,2013-08-28 15:45:00,
2013-08-28 10:50:00,85.0,71.0,30.06,SW,228,0.0,4.0,63,0.00,,---,0.00,VWS V13.01,2013-08-28 15:50:00,
2013-08-28 10:55:00,85.6,71.1,30.06,SSW,200,0.0,5.0,62,0.00,,---,0.00,VWS V13.01,2013-08-28 15:55:00,
2013-08-28 11:00:00,86.0,71.9,30.06,SSW,203,0.0,5.0,63,0.00,,---,0.00,VWS V13.01,2013-08-28 16:00:00,
2013-08-28 11:05:00,86.5,71.9,30.06,SSW,203,0.0,5.0,62,0.00,,---,0.00,VWS V13.01,2013-08-28 16:05:00,
2013-08-28 11:10:00,87.0,72.4,30.06,SSW,207,2.0,2.0,62,0.00,,---,0.00,VWS V13.01,2013-08-28 16:10:00,
2013-08-28 11:15:00,87.4,71.8,30.06,WSW,238,0.0,7.0,60,0.00,,---,0.00,VWS V13.01,2013-08-28 16:15:00,
2013-08-28 11:20:00,87.6,71.0,30.06,SW,222,0.0,7.0,58,0.00,,---,0.00,VWS V13.01,2013-08-28 16:20:00,
2013-08-28 11:25:00,87.9,71.3,30.06,SSW,195,1.0,7.0,58,0.00,,---,0.00,VWS V13.01,2013-08-28 16:25:00,
2013-08-28 11:30:00,88.0,70.9,30.06,SW,218,0.0,7.0,57,0.00,,---,0.00,VWS V13.01,2013-08-28 16:30:00,
2013-08-28 11:35:00,88.3,71.7,30.06,SSW,192,0.0,7.0,58,0.00,,---,0.00,VWS V13.01,2013-08-28 16:35:00,
2013-08-28 11:41:00,88.4,71.2,30.06,South,178,0.0,7.0,57,0.00,,---,0.00,VWS V13.01,2013-08-28 16:41:00,
2013-08-28 11:46:00,88.6,70.9,30.06,SW,225,3.0,7.0,56,0.00,,---,0.00,VWS V13.01,2013-08-28 16:46:00,
2013-08-28 11:51:00,89.2,70.4,30.05,West,259,0.0,7.0,54,0.00,,---,0.00,VWS V13.01,2013-08-28 16:51:00,
2013-08-28 11:56:00,89.7,70.3,30.05,South,175,0.0,7.0,53,0.00,,---,0.00,VWS V13.01,2013-08-28 16:56:00,
2013-08-28 12:01:00,90.2,70.8,30.05,SE,134,1.0,7.0,53,0.00,,---,0.00,VWS V13.01,2013-08-28 17:01:00,
2013-08-28 12:06:00,90.7,71.2,30.05,SSW,213,0.0,7.0,53,0.00,,---,0.00,VWS V13.01,2013-08-28 17:06:00,
2013-08-28 12:11:00,91.1,71.0,30.05,South,176,0.0,6.0,52,0.00,,---,0.00,VWS V13.01,2013-08-28 17:11:00,
2013-08-28 12:16:00,91.4,71.9,30.04,East,84,0.0,6.0,53,0.00,,---,0.00,VWS V13.01,2013-08-28 17:16:00,
2013-08-28 12:21:00,91.8,71.1,30.04,SSW,192,0.0,6.0,51,0.00,,---,0.00,VWS V13.01,2013-08-28 17:21:00,
2013-08-28 12:26:00,92.1,71.4,30.04,SSW,198,0.0,6.0,51,0.00,,---,0.00,VWS V13.01,2013-08-28 17:26:00,
2013-08-28 12:31:00,92.3,71.0,30.04,SSW,198,0.0,6.0,50,0.00,,---,0.00,VWS V13.01,2013-08-28 17:31:00,
2013-08-28 12:36:00,92.3,70.4,30.03,SSW,203,2.0,6.0,49,0.00,,---,0.00,VWS V13.01,2013-08-28 17:36:00,
2013-08-28 12:41:00,92.4,71.7,30.03,SSW,203,0.0,4.0,51,0.00,,---,0.00,VWS V13.01,2013-08-28 17:41:00,
2013-08-28 12:47:00,92.6,70.7,30.03,SW,223,2.0,6.0,49,0.00,,---,0.00,VWS V13.01,2013-08-28 17:47:00,
2013-08-28 12:52:00,92.0,70.7,30.03,West,267,0.0,7.0,50,0.00,,---,0.00,VWS V13.01,2013-08-28 17:52:00,
2013-08-28 12:57:00,91.7,71.6,30.03,SSE,155,2.0,7.0,52,0.00,,---,0.00,VWS V13.01,2013-08-28 17:57:00,
2013-08-28 13:02:00,92.9,72.7,30.03,South,174,3.0,7.0,52,0.00,,---,0.00,VWS V13.01,2013-08-28 18:02:00,
2013-08-28 13:07:00,94.0,71.3,30.02,West,275,2.0,9.0,48,0.00,,---,0.00,VWS V13.01,2013-08-28 18:07:00,
2013-08-28 13:12:00,93.8,71.2,30.02,SW,233,0.0,5.0,48,0.00,,---,0.00,VWS V13.01,2013-08-28 18:12:00,
2013-08-28 13:17:00,93.5,72.1,30.02,SE,141,2.0,5.0,50,0.00,,---,0.00,VWS V13.01,2013-08-28 18:17:00,
2013-08-28 13:22:00,93.5,69.6,30.02,SSE,150,0.0,5.0,46,0.00,,---,0.00,VWS V13.01,2013-08-28 18:22:00,
2013-08-28 13:27:00,93.5,72.1,30.02,SSE,150,0.0,5.0,50,0.00,,---,0.00,VWS V13.01,2013-08-28 18:27:00,
2013-08-28 13:32:00,94.8,71.4,30.02,SSE,168,5.0,5.0,47,0.00,,---,0.00,VWS V13.01,2013-08-28 18:32:00,
2013-08-28 13:37:00,95.3,71.3,30.02,West,259,0.0,0.0,46,0.00,,---,0.00,VWS V13.01,2013-08-28 18:37:00,
2013-08-28 13:42:00,94.4,71.1,30.02,WNW,282,0.0,9.0,47,0.00,,---,0.00,VWS V13.01,2013-08-28 18:42:00,
2013-08-28 13:47:00,94.0,70.1,30.02,WSW,237,1.0,9.0,46,0.00,,---,0.00,VWS V13.01,2013-08-28 18:47:00,
2013-08-28 13:52:00,93.4,70.2,30.01,SW,215,1.0,9.0,47,0.00,,---,0.00,VWS V13.01,2013-08-28 18:52:00,
2013-08-28 13:58:00,93.4,71.4,30.02,WSW,241,1.0,9.0,49,0.00,,---,0.00,VWS V13.01,2013-08-28 18:58:00,
2013-08-28 14:03:00,93.8,72.4,30.02,WNW,286,0.0,9.0,50,0.00,,---,0.00,VWS V13.01,2013-08-28 19:03:00,
2013-08-28 14:08:00,93.9,70.6,30.01,West,277,0.0,3.0,47,0.00,,---,0.00,VWS V13.01,2013-08-28 19:08:00,
2013-08-28 14:13:00,94.1,71.4,30.01,NW,313,3.0,6.0,48,0.00,,---,0.00,VWS V13.01,2013-08-28 19:13:00,
2013-08-28 14:18:00,93.7,70.4,30.01,WSW,238,0.0,10.0,47,0.00,,---,0.00,VWS V13.01,2013-08-28 19:18:00,
2013-08-28 14:23:00,94.4,74.1,30.01,West,267,0.0,10.0,52,0.00,,---,0.00,VWS V13.01,2013-08-28 19:23:00,
2013-08-28 14:28:00,94.9,71.5,30.00,NNW,342,4.0,10.0,47,0.00,,---,0.00,VWS V13.01,2013-08-28 19:28:00,
2013-08-28 14:33:00,94.4,70.4,30.00,NNW,340,0.0,10.0,46,0.00,,---,0.00,VWS V13.01,2013-08-28 19:33:00,
2013-08-28 14:38:00,95.1,70.4,30.00,West,276,0.0,6.0,45,0.00,,---,0.00,VWS V13.01,2013-08-28 19:38:00,
2013-08-28 14:43:00,95.1,71.7,30.00,NW,310,3.0,7.0,47,0.00,,---,0.00,VWS V13.01,2013-08-28 19:43:00,
2013-08-28 14:48:00,94.8,72.7,30.00,WSW,257,4.0,10.0,49,0.00,,---,0.00,VWS V13.01,2013-08-28 19:48:00,
2013-08-28 14:54:00,95.2,71.2,30.00,NW,314,1.0,10.0,46,0.00,,---,0.00,VWS V13.01,2013-08-28 19:54:00,
2013-08-28 14:59:00,95.9,71.8,30.00,WSW,254,0.0,10.0,46,0.00,,---,0.00,VWS V13.01,2013-08-28 19:59:00,
2013-08-28 15:04:00,95.4,71.3,30.00,NNW,330,0.0,10.0,46,0.00,,---,0.00,VWS V13.01,2013-08-28 20:04:00,
2013-08-28 15:09:00,94.7,71.3,30.00,WSW,251,1.0,3.0,47,0.00,,---,0.00,VWS V13.01,2013-08-28 20:09:00,
2013-08-28 15:14:00,94.6,70.6,29.99,WSW,250,0.0,7.0,46,0.00,,---,0.00,VWS V13.01,2013-08-28 20:14:00,
2013-08-28 15:19:00,94.7,72.0,29.99,NNW,336,1.0,7.0,48,0.00,,---,0.00,VWS V13.01,2013-08-28 20:19:00,
2013-08-28 15:24:00,94.4,71.7,29.99,WNW,300,0.0,10.0,48,0.00,,---,0.00,VWS V13.01,2013-08-28 20:24:00,
2013-08-28 15:29:00,94.2,70.9,29.99,North,5,0.0,10.0,47,0.00,,---,0.00,VWS V13.01,2013-08-28 20:29:00,
2013-08-28 15:34:00,94.2,70.9,29.99,West,271,1.0,10.0,47,0.00,,---,0.00,VWS V13.01,2013-08-28 20:34:00,
2013-08-28 15:39:00,94.9,71.5,29.99,NW,320,2.0,2.0,47,0.00,,---,0.00,VWS V13.01,2013-08-28 20:39:00,
2013-08-28 15:44:00,94.4,71.1,29.99,NNW,333,4.0,9.0,47,0.00,,---,0.00,VWS V13.01,2013-08-28 20:44:00,
2013-08-28 15:49:00,94.6,71.9,29.98,NW,318,9.0,9.0,48,0.00,,---,0.00,VWS V13.01,2013-08-28 20:49:00,
2013-08-28 15:54:00,94.4,71.1,29.98,WNW,297,0.0,10.0,47,0.00,,---,0.00,VWS V13.01,2013-08-28 20:54:00,
2013-08-28 16:00:00,94.2,70.9,29.98,NNW,333,3.0,10.0,47,0.00,,---,0.00,VWS V13.01,2013-08-28 21:00:00,
2013-08-28 16:05:00,94.4,71.1,29.98,NW,313,0.0,10.0,47,0.00,,---,0.00,VWS V13.01,2013-08-28 21:05:00,
2013-08-28 16:10:00,95.0,71.6,29.98,WNW,292,0.0,6.0,47,0.00,,---,0.00,VWS V13.01,2013-08-28 21:10:00,
2013-08-28 16:15:00,95.2,71.2,29.98,West,269,0.0,6.0,46,0.00,,---,0.00,VWS V13.01,2013-08-28 21:15:00,
2013-08-28 16:20:00,95.4,70.7,29.98,NW,315,0.0,6.0,45,0.00,,---,0.00,VWS V13.01,2013-08-28 21:20:00,
2013-08-28 16:25:00,94.8,70.2,29.98,NW,309,0.0,6.0,45,0.00,,---,0.00,VWS V13.01,2013-08-28 21:25:00,
2013-08-28 16:30:00,94.6,70.6,29.98,WNW,284,0.0,6.0,46,0.00,,---,0.00,VWS V13.01,2013-08-28 21:30:00,
2013-08-28 16:35:00,94.1,70.8,29.98,NW,309,0.0,6.0,47,0.00,,---,0.00,VWS V13.01,2013-08-28 21:35:00,
2013-08-28 16:40:00,94.1,69.5,29.98,NNW,330,0.0,6.0,45,0.00,,---,0.00,VWS V13.01,2013-08-28 21:40:00,
2013-08-28 16:45:00,94.0,68.8,29.98,SW,230,0.0,6.0,44,0.00,,---,0.00,VWS V13.01,2013-08-28 21:45:00,
2013-08-28 16:50:00,93.8,67.9,29.98,West,264,0.0,6.0,43,0.00,,---,0.00,VWS V13.01,2013-08-28 21:50:00,
2013-08-28 16:56:00,93.9,68.7,29.98,WSW,250,0.0,6.0,44,0.00,,---,0.00,VWS V13.01,2013-08-28 21:56:00,
2013-08-28 17:01:00,93.8,67.9,29.98,NNW,331,1.0,6.0,43,0.00,,---,0.00,VWS V13.01,2013-08-28 22:01:00,
2013-08-28 17:06:00,93.9,68.7,29.98,NNW,336,0.0,6.0,44,0.00,,---,0.00,VWS V13.01,2013-08-28 22:06:00,
2013-08-28 17:11:00,93.7,69.2,29.98,NW,315,0.0,5.0,45,0.00,,---,0.00,VWS V13.01,2013-08-28 22:11:00,
2013-08-28 17:16:00,93.8,68.6,29.97,WNW,300,0.0,5.0,44,0.00,,---,0.00,VWS V13.01,2013-08-28 22:16:00,
2013-08-28 17:21:00,94.1,68.2,29.97,WNW,288,0.0,6.0,43,0.00,,---,0.00,VWS V13.01,2013-08-28 22:21:00,
2013-08-28 17:26:00,94.2,68.3,29.98,WSW,252,0.0,6.0,43,0.00,,---,0.00,VWS V13.01,2013-08-28 22:26:00,
2013-08-28 17:31:00,94.3,69.1,29.97,West,271,0.0,6.0,44,0.00,,---,0.00,VWS V13.01,2013-08-28 22:31:00,
2013-08-28 17:36:00,94.2,68.3,29.97,NW,321,0.0,6.0,43,0.00,,---,0.00,VWS V13.01,2013-08-28 22:36:00,
2013-08-28 17:41:00,94.1,68.2,29.97,NW,321,0.0,0.0,43,0.00,,---,0.00,VWS V13.01,2013-08-28 22:41:00,
2013-08-28 17:46:00,94.0,68.1,29.98,West,266,1.0,4.0,43,0.00,,---,0.00,VWS V13.01,2013-08-28 22:46:00,
2013-08-28 17:51:00,93.9,67.3,29.97,WSW,248,0.0,5.0,42,0.00,,---,0.00,VWS V13.01,2013-08-28 22:51:00,
2013-08-28 17:57:00,93.9,68.0,29.97,West,264,0.0,5.0,43,0.00,,---,0.00,VWS V13.01,2013-08-28 22:57:00,
2013-08-28 18:02:00,93.8,67.2,29.97,NNW,337,0.0,5.0,42,0.00,,---,0.00,VWS V13.01,2013-08-28 23:02:00,
2013-08-28 18:07:00,93.7,67.2,29.97,NW,326,0.0,5.0,42,0.00,,---,0.00,VWS V13.01,2013-08-28 23:07:00,
2013-08-28 18:12:00,93.6,67.8,29.98,NW,326,0.0,2.0,43,0.00,,---,0.00,VWS V13.01,2013-08-28 23:12:00,
2013-08-28 18:17:00,93.4,67.6,29.97,NW,309,0.0,3.0,43,0.00,,---,0.00,VWS V13.01,2013-08-28 23:17:00,
2013-08-28 18:22:00,93.3,67.5,29.97,NNW,336,0.0,4.0,43,0.00,,---,0.00,VWS V13.01,2013-08-28 23:22:00,
2013-08-28 18:27:00,93.1,68.0,29.97,NW,321,0.0,4.0,44,0.00,,---,0.00,VWS V13.01,2013-08-28 23:27:00,
2013-08-28 18:32:00,92.9,67.8,29.97,NW,321,0.0,4.0,44,0.00,,---,0.00,VWS V13.01,2013-08-28 23:32:00,
2013-08-28 18:37:00,92.7,67.6,29.97,West,270,0.0,0.0,44,0.00,,---,0.00,VWS V13.01,2013-08-28 23:37:00,
2013-08-28 18:42:00,92.5,68.1,29.97,West,270,0.0,0.0,45,0.00,,---,0.00,VWS V13.01,2013-08-28 23:42:00,
2013-08-28 18:47:00,92.3,67.2,29.98,WNW,292,0.0,1.0,44,0.00,,---,0.00,VWS V13.01,2013-08-28 23:47:00,
2013-08-28 18:52:00,92.2,67.8,29.98,WNW,292,0.0,1.0,45,0.00,,---,0.00,VWS V13.01,2013-08-28 23:52:00,
2013-08-28 18:58:00,92.0,67.6,29.98,NW,309,0.0,3.0,45,0.00,,---,0.00,VWS V13.01,2013-08-28 23:58:00,
2013-08-28 19:03:00,91.9,68.2,29.98,NW,309,0.0,3.0,46,0.00,,---,0.00,VWS V13.01,2013-08-29 00:03:00,
2013-08-28 19:08:00,91.8,68.7,29.98,NW,309,0.0,0.0,47,0.00,,---,0.00,VWS V13.01,2013-08-29 00:08:00,
2013-08-28 19:13:00,91.6,68.5,29.98,NW,309,0.0,0.0,47,0.00,,---,0.00,VWS V13.01,2013-08-29 00:13:00,
2013-08-28 19:18:00,91.4,68.3,29.98,NW,309,0.0,1.0,47,0.00,,---,0.00,VWS V13.01,2013-08-29 00:18:00,
2013-08-28 19:23:00,91.1,68.7,29.98,NW,309,0.0,1.0,48,0.00,,---,0.00,VWS V13.01,2013-08-29 00:23:00,
2013-08-28 19:28:00,90.7,68.9,29.98,NW,309,0.0,1.0,49,0.00,,---,0.00,VWS V13.01,2013-08-29 00:28:00,
2013-08-28 19:33:00,90.4,69.2,29.98,NW,309,0.0,1.0,50,0.00,,---,0.00,VWS V13.01,2013-08-29 00:33:00,
2013-08-28 19:38:00,90.0,68.9,29.98,NW,309,0.0,0.0,50,0.00,,---,0.00,VWS V13.01,2013-08-29 00:38:00,
2013-08-28 19:43:00,89.7,69.2,29.98,NW,309,0.0,0.0,51,0.00,,---,0.00,VWS V13.01,2013-08-29 00:43:00,
2013-08-28 19:48:00,89.3,69.4,29.98,NW,309,0.0,0.0,52,0.00,,---,0.00,VWS V13.01,2013-08-29 00:48:00,
2013-08-28 19:54:00,89.0,69.1,29.98,NW,309,0.0,0.0,52,0.00,,---,0.00,VWS V13.01,2013-08-29 00:54:00,
2013-08-28 19:59:00,88.8,69.5,29.99,NW,309,0.0,0.0,53,0.00,,---,0.00,VWS V13.01,2013-08-29 00:59:00,
2013-08-28 20:04:00,88.6,69.8,29.99,NW,309,0.0,3.0,54,0.00,,---,0.00,VWS V13.01,2013-08-29 01:04:00,
2013-08-28 20:09:00,88.4,70.2,29.98,NW,309,0.0,0.0,55,0.00,,---,0.00,VWS V13.01,2013-08-29 01:09:00,
2013-08-28 20:14:00,88.1,69.9,29.99,NW,309,0.0,0.0,55,0.00,,---,0.00,VWS V13.01,2013-08-29 01:14:00,
2013-08-28 20:19:00,87.9,69.7,29.99,NW,309,0.0,0.0,55,0.00,,---,0.00,VWS V13.01,2013-08-29 01:19:00,
2013-08-28 20:24:00,87.5,69.4,29.99,NW,309,0.0,0.0,55,0.00,,---,0.00,VWS V13.01,2013-08-29 01:24:00,
2013-08-28 20:29:00,87.1,69.5,29.99,NW,309,0.0,0.0,56,0.00,,---,0.00,VWS V13.01,2013-08-29 01:29:00,
2013-08-28 20:34:00,86.8,69.2,29.99,NW,309,0.0,0.0,56,0.00,,---,0.00,VWS V13.01,2013-08-29 01:34:00,
2013-08-28 20:39:00,86.6,69.1,29.99,NW,309,0.0,0.0,56,0.00,,---,0.00,VWS V13.01,2013-08-29 01:39:00,
2013-08-28 20:44:00,86.3,69.3,30.00,NW,309,0.0,0.0,57,0.00,,---,0.00,VWS V13.01,2013-08-29 01:44:00,
2013-08-28 20:50:00,86.1,69.1,30.00,NW,309,0.0,0.0,57,0.00,,---,0.00,VWS V13.01,2013-08-29 01:50:00,
2013-08-28 20:55:00,86.0,69.0,30.00,NW,309,0.0,0.0,57,0.00,,---,0.00,VWS V13.01,2013-08-29 01:55:00,
2013-08-28 21:00:00,85.9,68.9,30.00,NW,309,0.0,0.0,57,0.00,,---,0.00,VWS V13.01,2013-08-29 02:00:00,
2013-08-28 21:05:00,85.7,69.2,30.00,NW,309,0.0,0.0,58,0.00,,---,0.00,VWS V13.01,2013-08-29 02:05:00,
2013-08-28 21:10:00,85.6,69.1,30.00,NW,309,0.0,0.0,58,0.00,,---,0.00,VWS V13.01,2013-08-29 02:10:00,
2013-08-28 21:15:00,85.5,69.1,30.00,NW,309,0.0,0.0,58,0.00,,---,0.00,VWS V13.01,2013-08-29 02:15:00,
2013-08-28 21:20:00,85.3,68.9,30.00,NW,309,0.0,0.0,58,0.00,,---,0.00,VWS V13.01,2013-08-29 02:20:00,
2013-08-28 21:25:00,85.2,69.3,30.00,NW,309,0.0,0.0,59,0.00,,---,0.00,VWS V13.01,2013-08-29 02:25:00,
2013-08-28 21:30:00,85.0,69.1,30.00,NW,309,0.0,0.0,59,0.00,,---,0.00,VWS V13.01,2013-08-29 02:30:00,
2013-08-28 21:35:00,84.7,69.3,30.00,NW,309,0.0,0.0,60,0.00,,---,0.00,VWS V13.01,2013-08-29 02:35:00,
2013-08-28 21:40:00,84.5,69.1,30.00,NW,309,0.0,0.0,60,0.00,,---,0.00,VWS V13.01,2013-08-29 02:40:00,
2013-08-28 21:45:00,84.3,69.4,30.00,NW,309,0.0,0.0,61,0.00,,---,0.00,VWS V13.01,2013-08-29 02:45:00,
2013-08-28 21:51:00,84.2,69.8,30.00,NW,309,0.0,0.0,62,0.00,,---,0.00,VWS V13.01,2013-08-29 02:51:00,
2013-08-28 21:56:00,84.1,69.7,30.00,NW,309,0.0,0.0,62,0.00,,---,0.00,VWS V13.01,2013-08-29 02:56:00,
2013-08-28 22:01:00,84.1,69.2,30.00,NW,309,0.0,0.0,61,0.00,,---,0.00,VWS V13.01,2013-08-29 03:01:00,
2013-08-28 22:06:00,84.0,69.1,30.00,NW,309,0.0,0.0,61,0.00,,---,0.00,VWS V13.01,2013-08-29 03:06:00,
2013-08-28 22:11:00,83.9,69.5,30.00,NW,309,0.0,0.0,62,0.00,,---,0.00,VWS V13.01,2013-08-29 03:11:00,
2013-08-28 22:16:00,83.8,69.4,30.00,NW,309,0.0,0.0,62,0.00,,---,0.00,VWS V13.01,2013-08-29 03:16:00,
2013-08-28 22:21:00,83.7,69.3,30.00,NW,309,0.0,0.0,62,0.00,,---,0.00,VWS V13.01,2013-08-29 03:21:00,
2013-08-28 22:26:00,83.6,69.7,30.00,NW,309,0.0,0.0,63,0.00,,---,0.00,VWS V13.01,2013-08-29 03:26:00,
2013-08-28 22:31:00,83.5,69.6,30.00,NW,309,0.0,0.0,63,0.00,,---,0.00,VWS V13.01,2013-08-29 03:31:00,
2013-08-28 22:36:00,83.3,69.9,30.00,NW,309,0.0,0.0,64,0.00,,---,0.00,VWS V13.01,2013-08-29 03:36:00,
2013-08-28 22:41:00,83.2,70.2,30.00,NW,309,0.0,0.0,65,0.00,,---,0.00,VWS V13.01,2013-08-29 03:41:00,
2013-08-28 22:47:00,83.0,70.5,30.00,NW,309,0.0,0.0,66,0.00,,---,0.00,VWS V13.01,2013-08-29 03:47:00,
2013-08-28 22:52:00,82.9,70.4,30.00,NW,309,0.0,0.0,66,0.00,,---,0.00,VWS V13.01,2013-08-29 03:52:00,
2013-08-28 22:57:00,82.8,69.8,30.01,NW,309,0.0,0.0,65,0.00,,---,0.00,VWS V13.01,2013-08-29 03:57:00,
2013-08-28 23:01:00,82.7,69.8,30.01,NW,309,0.0,0.0,65,0.00,,---,0.00,VWS V13.01,2013-08-29 04:01:00,
2013-08-28 23:02:00,82.7,69.8,30.01,NW,309,0.0,0.0,65,0.00,,---,0.00,VWS V13.01,2013-08-29 04:02:00,
2013-08-28 23:06:00,82.6,69.7,30.01,NW,309,0.0,0.0,65,0.00,,---,0.00,VWS V13.01,2013-08-29 04:06:00,
2013-08-28 23:11:00,82.6,70.1,30.00,NW,309,0.0,0.0,66,0.00,,---,0.00,VWS V13.01,2013-08-29 04:11:00,
2013-08-28 23:16:00,82.5,70.0,30.00,NW,309,0.0,0.0,66,0.00,,---,0.00,VWS V13.01,2013-08-29 04:16:00,
2013-08-28 23:21:00,82.3,70.3,30.00,NW,309,0.0,0.0,67,0.00,,---,0.00,VWS V13.01,2013-08-29 04:21:00,
2013-08-28 23:26:00,82.2,70.6,30.00,NW,309,0.0,0.0,68,0.00,,---,0.00,VWS V13.01,2013-08-29 04:26:00,
2013-08-28 23:31:00,82.1,70.5,30.00,NW,309,0.0,0.0,68,0.00,,---,0.00,VWS V13.01,2013-08-29 04:31:00,
2013-08-28 23:36:00,81.9,70.3,30.00,NW,309,0.0,0.0,68,0.00,,---,0.00,VWS V13.01,2013-08-29 04:36:00,
2013-08-28 23:41:00,81.7,70.6,30.00,NW,309,0.0,0.0,69,0.00,,---,0.00,VWS V13.01,2013-08-29 04:41:00,
2013-08-28 23:46:00,81.5,70.8,30.01,NW,309,0.0,0.0,70,0.00,,---,0.00,VWS V13.01,2013-08-29 04:46:00,
2013-08-28 23:51:00,81.3,70.6,30.01,NW,309,0.0,0.0,70,0.00,,---,0.00,VWS V13.01,2013-08-29 04:51:00,
2013-08-28 23:56:00,81.2,70.5,30.01,NW,309,0.0,0.0,70,0.00,,---,0.00,VWS V13.01,2013-08-29 04:56:00,